KJ7AZ-3 Weather Reports


time (UTC)temp
F
wind
direction
speed
knots
gust
knots
rain 1hr
in
rain 24hr
in
rain mn
in
humidity
%
barometer
mb
20240420160826 47 110 7.0 9.6 0.00 0.00 0.00
20240420155327 45 103 7.0 3.5 0.00 0.00 0.00
20240420150830 43 135 8.7 7.8 0.00 0.00 0.00
20240420145332 43 155 6.1 8.7 0.00 0.00 0.00
20240420143833 42 131 9.6 8.7 0.00 0.00 0.00
20240420142334 43 117 7.8 12.2 0.00 0.00 0.00
20240420140835 42 153 9.6 10.4 0.00 0.00 0.00
20240420135336 42 104 7.0 6.1 0.00 0.00 0.00
20240420133838 42 128 7.0 7.8 0.00 0.00 0.00
20240420132339 42 127 7.0 6.1 0.00 0.00 0.00
20240420130840 42 114 6.1 7.8 0.00 0.00 0.00
20240420125342 42 134 6.1 7.0 0.00 0.00 0.00
20240420123843 41 97 6.1 7.8 0.00 0.00 0.00
20240420122344 42 136 8.7 11.3 0.00 0.00 0.00
20240420120845 42 114 8.7 13.0 0.00 0.00 0.00
20240420115347 43 139 8.7 7.8 0.00 0.00 0.00
20240420113848 43 121 6.1 7.0 0.00 0.00 0.00
20240420112348 44 132 5.2 8.7 0.00 0.00 0.00
20240420110850 45 84 7.8 7.0 0.00 0.00 0.00
20240420105351 45 132 7.0 6.1 0.00 0.00 0.00
20240420103852 45 115 7.8 7.0 0.00 0.00 0.00
20240420102353 45 143 8.7 12.2 0.00 0.00 0.00
20240420100854 45 124 8.7 9.6 0.00 0.00 0.00
20240420095355 45 127 7.8 3.5 0.00 0.00 0.00
20240420082400 45 129 5.2 5.2 0.00 0.00 0.00
20240420080901 45 91 5.2 7.0 0.00 0.00 0.00
20240420075400 45 127 5.2 7.0 0.00 0.00 0.00
20240420073902 45 129 4.3 3.5 0.00 0.00 0.00
20240420072403 47 148 6.1 6.1 0.00 0.00 0.00
20240420070904 47 143 1.7 2.6 0.00 0.00 0.00
20240420065404 47 93 2.6 2.6 0.00 0.00 0.00
20240420063905 48 165 0.9 3.5 0.00 0.00 0.00
20240420062407 48 169 1.7 1.7 0.00 0.00 0.00
20240420060908 48 150 0.0 3.5 0.00 0.00 0.00
20240420055409 49 98 0.9 0.9 0.00 0.00 0.00
20240420053910 50 170 1.7 2.6 0.00 0.00 0.00
20240420052411 50 103 1.7 2.6 0.00 0.00 0.00
20240420050912 50 96 2.6 1.7 0.00 0.00 0.00
20240420045413 51 145 2.6 0.0 0.00 0.00 0.00
20240420043914 50 90 2.6 4.3 0.00 0.00 0.00
20240420042414 51 93 1.7 3.5 0.00 0.00 0.00
20240420040916 52 121 0.9 1.7 0.00 0.00 0.00
20240420035417 52 153 0.9 2.6 0.00 0.00 0.00
20240420033918 53 153 2.6 1.7 0.00 0.00 0.00
20240420032419 54 150 2.6 1.7 0.00 0.00 0.00
20240420030920 54 127 4.3 2.6 0.00 0.00 0.00
20240420025421 54 132 2.6 2.6 0.00 0.00 0.00
20240420022421 56 103 3.5 2.6 0.00 0.00 0.00
20240420020922 57 134 3.5 4.3 0.00 0.00 0.00
20240420015423 58 122 6.1 6.1 0.00 0.00 0.00
20240420013925 59 118 5.2 4.3 0.00 0.00 0.00
20240420012425 60 115 5.2 4.3 0.00 0.00 0.00
20240420010926 64 153 7.0 12.2 0.00 0.00 0.00
20240420005427 65 110 6.1 6.1 0.00 0.00 0.00
20240420003927 69 191 2.6 1.7 0.00 0.00 0.00
20240420002428 71 304 0.9 0.0 0.00 0.00 0.00
20240419235428 78 105 2.6 1.7 0.00 0.00 0.00
20240419233929 77 316 6.1 6.1 0.00 0.00 0.00
20240419232429 79 287 7.0 5.2 0.00 0.00 0.00
20240419230929 77 228 1.7 6.1 0.00 0.00 0.00
20240419225430 78 335 3.5 3.5 0.00 0.00 0.00
20240419223930 77 301 6.1 4.3 0.00 0.00 0.00
20240419222430 77 304 7.8 8.7 0.00 0.00 0.00
20240419220930 78 318 5.2 3.5 0.00 0.00 0.00
20240419215431 74 330 4.3 1.7 0.00 0.00 0.00
20240419213931 75 305 7.0 11.3 0.00 0.00 0.00
20240419212431 75 297 7.8 5.2 0.00 0.00 0.00
20240419210932 76 300 6.1 9.6 0.00 0.00 0.00
20240419205432 77 298 7.8 5.2 0.00 0.00 0.00
20240419203932 77 301 5.2 6.1 0.00 0.00 0.00
20240419202433 76 319 5.2 3.5 0.00 0.00 0.00
20240419200933 75 307 5.2 5.2 0.00 0.00 0.00
20240419195434 76 267 3.5 5.2 0.00 0.00 0.00
20240419193934 73 215 0.9 4.3 0.00 0.00 0.00
20240419192435 72 70 2.6 0.0 0.00 0.00 0.00
20240419190935 69 124 1.7 0.0 0.00 0.00 0.00
20240419185436 68 207 0.9 1.7 0.00 0.00 0.00
20240419183937 66 127 2.6 2.6 0.00 0.00 0.00
20240419182438 65 86 0.9 0.9 0.00 0.00 0.00
20240419180939 63 122 3.5 1.7 0.00 0.00 0.00
20240419175439 61 134 6.1 0.9 0.00 0.00 0.00
20240419173940 60 138 6.1 1.7 0.00 0.00 0.00
20240419172441 59 162 5.2 5.2 0.00 0.00 0.00
20240419170942 57 143 6.1 4.3 0.00 0.00 0.00
20240419165443 55 156 5.2 6.1 0.00 0.00 0.00
20240419163944 54 100 6.1 5.2 0.00 0.00 0.00
20240419162446 54 101 7.8 7.0 0.00 0.00 0.00